ARIRANG-2 (KOMPSAT-2)   
1 29268U 06031A   19260.49009210  .00000049  00000-0  18746-4 0  9993
2 29268  98.0176 150.1310 0017153 304.3786  55.5792 14.62447709701172
SL-19 R/B               
1 29269U 06031B   19259.92942412  .00000118  00000-0  15462-4 0  9999
2 29269  98.3123  81.2436 0125989  20.3778 340.2403 14.94431809715058